Regional Weather Roundup
Issued by NWS

Home | Current Version | Previous Version | Graphics & Text | Print | Product List | Glossary On
Versions: 1 2 3 4 5 6 7 8 9 10 11 12 13 14 15 16 17 18 19 20 21 22 23 24 25 26 27 28 29 30 31 32 33 34 35 36 37 38 39 40 41 42 43 44 45 46 47 48 49 50
000
ASUS43 KFSD 191610
RWRSD

WEATHER ROUNDUP FOR SOUTH DAKOTA
NATIONAL WEATHER SERVICE SIOUX FALLS SD
1100 AM CDT SUN APR 19 2015

NOTE: "FAIR" INDICATES FEW OR NO CLOUDS BELOW 12,000 FEET WITH NO
SIGNIFICANT WEATHER AND/OR OBSTRUCTIONS TO VISIBILITY.


SDZ001>005-009-010-012>017-191700-
NORTHWEST AND NORTH CENTRAL SOUTH DAKOTA

CITY           SKY/WX    TMP DP  RH WIND       PRES   REMARKS
BUFFALO          N/A     46  26  45 NW45G53   29.94F
FAITH            N/A     44  29  55 NW30G40   29.98F
MOBRIDGE       MOSUNNY   49  36  61 NW23G32   29.88S
$$

SDZ012>016-024>037-041>051-057-063-072>074-191700-
SOUTHWEST AND SOUTH CENTRAL SOUTH DAKOTA

CITY           SKY/WX    TMP DP  RH WIND       PRES   REMARKS
RAPID CTY ARPT SUNNY     46  25  43 NW40G47   30.05F
PIERRE         MOSUNNY   50  34  54 NW30G40   29.93F
CUSTER         SUNNY     35  18  49 NW16G31   30.03F WCI  25
ELLSWORTH AFB  MIX PCPN  46  25  42 NW37G51   30.03
PHILIP         SUNNY     50  28  42 NW33G41   30.00F
PINE RIDGE     SUNNY     46  23  40 NW21G36   30.06F
SPEARFISH      MIX PCPN  39  23  52 NW33G39   30.09F
WINNER         FAIR      51  30  44 NW26G37   29.94S
$$

SDZ004>011-016>023-039-040-191700-
NORTHEAST SOUTH DAKOTA

CITY           SKY/WX    TMP DP  RH WIND       PRES   REMARKS
ABERDEEN       MOSUNNY   52  39  61 NW25G33   29.83S
WATERTOWN      CLOUDY    45  41  86 NW25G33   29.77R
BROOKINGS      CLOUDY    46  43  87 NW23G33   29.78R
SISSETON         N/A     47  43  86 NW24G32   29.74R
$$

SDZ017-020-022-023-036>040-048>070-191700-
SOUTHEAST SOUTH DAKOTA

CITY           SKY/WX    TMP DP  RH WIND       PRES   REMARKS
SIOUX FALLS    CLOUDY    49  44  83 NW22G32   29.77R
HURON          CLOUDY    50  38  63 NW29G35   29.84S
CHAMBERLAIN    PTSUNNY   49  31  50 NW29G36   29.91S
MITCHELL       CLOUDY    50  38  63 NW29G37   29.85S
YANKTON        CLOUDY    46  41  81 NW30G36   29.82R
$$

ABBREVIATIONS USED IN REMARKS
   TC - TEMPERATURE IN CELSIUS
  WCI - WIND CHILL INDEX
   HX - HEAT INDEX
  VSB - VISIBILITY




USA.gov is the U.S. government's official web portal to all federal, state and local government web resources and services.